Weather in Pesaro

Italy     43°54′45″N   12°54′19″E
temp.,
°C
wind,
m/s
gust,
m/s
humid.,
%
clouds,
%
prec.,
mm/h
press.,
hPa
HPBL,
m
20 april, tue
tue2023:00+11wsw3366100 0.0 1016175
02:00+11wsw336771 0.0 1015168
05:00+10wsw336524 0.0 1015127
08:00+10ssw2260100 0.0 1016116
11:00+11ese1156100 0.0 1017107
14:00+12ese44595 0.0 1016166
17:00+13ese45654 0.1 1015153
20:00+12sse467849 0.7 1016145
21 april, wed
wed2123:00+12sse45790 0.1 1017134
02:00+12sw47720 0.1 1017196
05:00+11wsw45720 0.0 1017163
08:00+11w22670 0.0 1018134
11:00+12wsw01606 0.0 1019110
14:00+13e5569100 0.0 1019251
17:00+13se787799 0.0 1018248
20:00+13se7107870 0.0 1017158
22 april, thu
thu2223:00+12sse567797 0.0 1018136
02:00+12s3367100 0.0 101885
05:00+12ssw1166100 0.0 101870
08:00+13nw2269100 0.0 1018111
11:00+12nnw4374100 0.0 1018178
14:00+12nne2276100 0.0 1018118
17:00+14ssw3475100 0.1 1017234
20:00+13sse3480100 0.1 1016119
23 april, fri
fri2323:00+13sse348050 0.0 101773
02:00+13s227810 0.0 101734
05:00+12sw1176100 0.0 101755
08:00+13ene5681100 0.0 1018353
11:00+12ene778099 0.0 1020375
14:00+12ene88704 0.0 1020419
17:00+13ene58671 0.0 1020515
20:00+13nne35741 0.0 1021171
24 april, sat
sat2423:00+13n67760 0.0 1022319
02:00+13nne45770 0.0 1023254
05:00+13nne45700 0.0 1022526
08:00+13nnw57740 0.0 1023828
11:00+11nnw55783 0.0 1023381
14:00+12nne33660 0.0 1022284
17:00+12e00560 0.0 102196
20:00+13ssw11594 0.0 102123